Location: Oshawa
(43.9000°N, 78.8670°W)
Time: 00:05:00
(UTC-04:00)

Cosmos 1500 - Visible Passes

Search period start: 21 September 2014 00:00
Search period end: 01 October 2014 00:00
Orbit: 520 x 542 km, 82.5° (Epoch: 18 September)

Date Brightness Start Highest point End Pass type
(mag) Time Alt. Az. Time Alt. Az. Time Alt. Az.
21 Sep 6.4 04:04:10 10° NE 04:06:13 14° ENE 04:08:15 10° E visible
21 Sep 3.4 05:38:42 10° NNW 05:42:33 48° W 05:46:22 10° SSW visible
22 Sep 6.4 03:54:01 10° NE 03:55:51 13° ENE 03:57:41 10° E visible
22 Sep 3.4 05:28:20 10° NNW 05:32:13 52° W 05:36:04 10° S visible
23 Sep 6.5 03:43:53 10° NE 03:45:28 12° ENE 03:47:03 10° E visible
23 Sep 3.3 05:17:58 10° NNW 05:21:53 56° W 05:23:12 36° SSW visible
24 Sep 6.5 03:33:48 10° NE 03:35:05 11° ENE 03:35:38 11° ENE visible
24 Sep 3.6 05:07:36 10° NNW 05:10:50 50° NW 05:10:50 50° NW visible
25 Sep 6.7 03:23:50 10° NE 03:23:52 10° NE 03:23:52 10° NE visible
25 Sep 4.8 04:57:13 10° NNW 04:59:06 26° NNW 04:59:06 26° NNW visible
26 Sep 5.6 04:46:50 10° NNW 04:47:41 16° NNW 04:47:41 16° NNW visible
27 Sep 6.1 04:36:26 10° NNW 04:36:29 10° NNW 04:36:29 10° NNW visible
